MASCOMA R @ W CANAAN: From 07/08/2018 10:00 to 07/22/2018 21:00

Date STAGE [FT] FLOW [CFS] PRECIPITATION INCREMENT [IN] AIR TEMPERATURE [DEGF]
07/22/2018 17:00 -- -- 0.00 --
07/22/2018 16:00 0.57 10.4 0.00 72.1
07/22/2018 15:00 0.57 10.4 0.00 69.8
07/22/2018 14:00 0.57 10.4 0.00 66.3
07/22/2018 13:00 0.57 10.4 0.00 65.6
07/22/2018 12:00 0.57 10.4 0.01 64.4
07/22/2018 11:00 0.57 10.4 0.00 63.8
07/22/2018 10:00 0.57 10.4 0.00 63.5
07/22/2018 09:00 0.58 10.7 0.00 61.5
07/22/2018 08:00 0.58 10.7 0.00 58.7
07/22/2018 07:00 0.59 11.1 0.00 57.0
07/22/2018 06:00 0.59 11.1 0.00 56.7
07/22/2018 05:00 0.59 11.1 0.00 56.0
07/22/2018 04:00 0.59 11.1 0.00 55.5
07/22/2018 03:00 0.59 11.1 0.00 55.7
07/22/2018 02:00 0.60 11.5 0.00 57.4
07/22/2018 01:00 0.60 11.5 0.00 58.1
07/22/2018 00:00 0.60 11.5 0.00 59.9
07/21/2018 23:00 0.60 11.5 0.00 63.1
07/21/2018 22:00 0.60 11.5 0.00 66.2
07/21/2018 21:00 0.60 11.5 0.00 68.3
07/21/2018 20:00 0.60 11.5 0.00 71.7
07/21/2018 19:00 0.60 11.5 0.00 76.4
07/21/2018 18:00 0.60 11.5 0.00 81.1
07/21/2018 17:00 0.60 11.5 0.00 80.0
07/21/2018 16:00 0.60 11.5 0.00 78.6
07/21/2018 15:00 0.61 11.9 0.00 77.6
07/21/2018 14:00 0.61 11.9 0.00 75.8
07/21/2018 13:00 0.61 11.9 0.00 73.7
07/21/2018 12:00 0.62 12.3 0.00 71.1
07/21/2018 11:00 0.62 12.3 0.00 68.3
07/21/2018 10:00 0.62 12.3 0.00 63.1
07/21/2018 09:00 0.62 12.3 0.00 57.1
07/21/2018 08:00 0.63 12.7 0.00 52.8
07/21/2018 07:00 0.64 13.1 0.00 51.8
07/21/2018 06:00 0.64 13.1 0.00 53.5
07/21/2018 05:00 0.65 13.5 0.00 54.7
07/21/2018 04:00 0.65 13.5 0.00 55.6
07/21/2018 03:00 0.66 13.9 0.00 57.2
07/21/2018 02:00 0.66 13.9 0.00 58.5
07/21/2018 01:00 0.66 13.9 0.00 60.9
07/21/2018 00:00 0.66 13.9 0.00 63.2
07/20/2018 23:00 0.67 14.4 0.00 66.4
07/20/2018 22:00 0.67 14.4 0.00 68.6
07/20/2018 21:00 0.67 14.4 0.00 71.3
07/20/2018 20:00 0.67 14.4 0.00 75.8
07/20/2018 19:00 0.67 14.4 0.00 84.1
07/20/2018 18:00 0.67 14.4 0.00 85.3
07/20/2018 17:00 0.67 14.4 0.00 84.5
07/20/2018 16:00 0.68 14.8 0.00 83.6
07/20/2018 15:00 0.68 14.8 0.00 82.1
07/20/2018 14:00 0.68 14.8 0.00 79.5
07/20/2018 13:00 0.69 15.2 0.00 76.9
07/20/2018 12:00 0.69 15.2 0.00 72.0
07/20/2018 11:00 0.70 15.7 0.00 65.7
07/20/2018 10:00 0.70 15.7 0.00 59.3
07/20/2018 09:00 0.70 15.7 0.00 53.4
07/20/2018 08:00 0.71 16.2 0.00 49.3
07/20/2018 07:00 0.72 16.6 0.00 47.6
07/20/2018 06:00 0.72 16.6 0.00 48.8
07/20/2018 05:00 0.73 17.1 0.00 49.6
07/20/2018 04:00 0.73 17.1 0.00 51.2
07/20/2018 03:00 0.73 17.1 0.00 52.1
07/20/2018 02:00 0.74 17.6 0.00 54.0
07/20/2018 01:00 0.74 17.6 0.00 55.3
07/20/2018 00:00 0.75 18.1 0.00 57.1
07/19/2018 23:00 0.75 18.1 0.00 59.6
07/19/2018 22:00 0.76 18.5 0.00 62.8
07/19/2018 21:00 0.76 18.5 0.00 67.4
07/19/2018 20:00 0.76 18.5 0.00 71.3
07/19/2018 19:00 0.77 19.1 0.00 79.1
07/19/2018 18:00 0.77 19.1 0.00 81.2
07/19/2018 17:00 0.78 19.6 0.00 79.2
07/19/2018 16:00 0.78 19.6 0.00 77.9
07/19/2018 15:00 0.78 19.6 0.00 75.5
07/19/2018 14:00 0.79 20.1 0.00 73.1
07/19/2018 13:00 0.80 20.6 0.00 70.2
07/19/2018 12:00 0.81 21.1 0.00 66.9
07/19/2018 11:00 0.82 21.7 0.00 62.1
07/19/2018 10:00 0.83 22.3 0.00 55.2
07/19/2018 09:00 0.85 23.4 0.00 48.9
07/19/2018 08:00 0.86 24.0 0.00 44.7
07/19/2018 07:00 0.87 24.6 0.00 42.9
07/19/2018 06:00 0.88 25.2 0.00 43.7
07/19/2018 05:00 0.89 25.8 0.00 45.2
07/19/2018 04:00 0.90 26.4 0.00 46.3
07/19/2018 03:00 0.90 26.4 0.00 48.0
07/19/2018 02:00 0.90 26.4 0.00 49.8
07/19/2018 01:00 0.90 26.4 0.00 52.2
07/19/2018 00:00 0.90 26.4 0.00 54.6
07/18/2018 23:00 0.91 27.0 0.00 57.6
07/18/2018 22:00 0.92 27.7 0.00 61.8
07/18/2018 21:00 0.92 27.7 0.00 65.1
07/18/2018 20:00 0.93 28.3 0.00 69.3
07/18/2018 19:00 0.93 28.3 0.00 75.1
07/18/2018 18:00 0.94 28.9 0.00 75.8
07/18/2018 17:00 0.94 28.9 0.00 74.4
07/18/2018 16:00 0.94 28.9 0.00 73.3
07/18/2018 15:00 0.94 28.9 0.00 72.6
07/18/2018 14:00 0.95 29.6 0.00 70.8
07/18/2018 13:00 0.95 29.6 0.00 67.7
07/18/2018 12:00 0.96 30.3 0.00 64.3
07/18/2018 11:00 0.97 30.9 0.00 60.7
07/18/2018 10:00 0.98 31.6 0.00 57.7
07/18/2018 09:00 0.99 32.3 0.00 57.9
07/18/2018 08:00 1.00 33.0 0.00 57.9
07/18/2018 07:00 1.01 33.7 0.00 57.9
07/18/2018 06:00 1.01 33.7 0.00 58.9
07/18/2018 05:00 1.01 33.7 0.00 61.1
07/18/2018 04:00 1.01 33.7 0.00 62.8
07/18/2018 03:00 0.99 32.3 0.00 63.9
07/18/2018 02:00 0.95 29.6 0.00 65.2
07/18/2018 01:00 0.89 25.8 0.00 65.6
07/18/2018 00:00 0.81 21.1 0.00 65.9
07/17/2018 23:00 0.75 18.1 0.00 66.7
07/17/2018 22:00 0.72 16.6 0.00 67.8
07/17/2018 21:00 0.70 15.7 0.01 69.6
07/17/2018 20:00 0.69 15.2 0.00 70.6
07/17/2018 19:00 0.68 14.8 0.00 70.3
07/17/2018 18:00 0.66 13.9 0.00 70.3
07/17/2018 17:00 0.66 13.9 0.00 70.0
07/17/2018 16:00 0.65 13.5 0.00 70.3
07/17/2018 15:00 0.64 13.1 0.02 70.9
07/17/2018 14:00 0.64 13.1 0.00 70.6
07/17/2018 13:00 0.64 13.1 0.06 70.9
07/17/2018 12:00 0.64 13.1 0.08 70.8
07/17/2018 11:00 0.62 12.3 0.07 71.8
07/17/2018 10:00 0.61 11.9 0.00 71.7
07/17/2018 09:00 0.61 12.0 0.00 71.9
07/17/2018 08:00 0.62 12.2 0.00 72.1
07/17/2018 07:00 0.62 12.3 0.00 72.3
07/17/2018 06:00 0.62 12.5 0.00 72.5
07/17/2018 05:00 0.63 12.6 0.00 72.7
07/17/2018 04:00 0.63 12.8 0.00 72.8
07/17/2018 03:00 0.64 12.9 0.00 73.0
07/17/2018 02:00 0.64 13.1 0.00 73.2
07/17/2018 01:00 0.64 13.2 0.00 73.4
07/17/2018 00:00 0.65 13.4 0.00 73.6
07/16/2018 23:00 0.65 13.5 0.00 73.8
07/16/2018 22:00 0.66 13.9 0.00 75.8
07/16/2018 21:00 0.66 13.9 0.00 77.6
07/16/2018 20:00 0.66 13.9 0.00 80.7
07/16/2018 19:00 0.66 13.9 0.00 90.2
07/16/2018 18:00 0.67 14.4 0.00 90.9
07/16/2018 17:00 0.67 14.4 0.00 85.8
07/16/2018 16:00 0.68 14.8 0.00 89.0
07/16/2018 15:00 0.68 14.8 0.00 87.3
07/16/2018 14:00 0.68 14.8 0.00 84.9
07/16/2018 13:00 0.69 15.2 0.00 80.6
07/16/2018 12:00 0.69 15.2 0.00 76.9
07/16/2018 11:00 0.69 15.2 0.00 71.0
07/16/2018 10:00 0.69 15.2 0.00 66.2
07/16/2018 09:00 0.68 14.8 0.00 60.0
07/16/2018 08:00 0.68 14.8 0.00 56.7
07/16/2018 07:00 0.68 14.8 0.00 55.0
07/16/2018 06:00 0.68 14.8 0.00 55.9
07/16/2018 05:00 0.68 14.8 0.00 56.9
07/16/2018 04:00 0.68 14.8 0.00 58.2
07/16/2018 03:00 0.68 14.8 0.00 59.6
07/16/2018 02:00 0.68 14.8 0.00 61.3
07/16/2018 01:00 0.67 14.4 0.00 63.2
07/16/2018 00:00 0.67 14.4 0.00 65.0
07/15/2018 23:00 0.67 14.4 0.00 67.8
07/15/2018 22:00 0.67 14.4 0.00 70.9
07/15/2018 21:00 0.67 14.4 0.00 75.6
07/15/2018 20:00 0.67 14.4 0.00 79.1
07/15/2018 19:00 0.67 14.4 0.00 85.8
07/15/2018 18:00 0.67 14.4 0.00 88.3
07/15/2018 17:00 0.66 13.9 0.00 85.9
07/15/2018 16:00 0.66 13.9 0.00 84.3
07/15/2018 15:00 0.66 13.9 0.00 81.1
07/15/2018 14:00 0.66 13.9 0.00 81.5
07/15/2018 13:00 0.66 13.9 0.00 78.5
07/15/2018 12:00 0.66 13.9 0.00 73.8
07/15/2018 11:00 0.66 13.9 0.00 68.9
07/15/2018 10:00 0.66 13.9 0.00 66.8
07/15/2018 09:00 0.66 13.9 0.00 64.9
07/15/2018 08:00 0.66 13.9 0.00 63.7
07/15/2018 07:00 0.66 13.9 0.00 62.8
07/15/2018 06:00 0.67 14.4 0.00 62.8
07/15/2018 05:00 0.67 14.4 0.00 62.9
07/15/2018 04:00 0.67 14.4 0.00 63.2
07/15/2018 03:00 0.67 14.4 0.00 63.3
07/15/2018 02:00 0.67 14.4 0.00 63.4
07/15/2018 01:00 0.67 14.4 0.00 64.7
07/15/2018 00:00 0.67 14.4 0.00 65.8
07/14/2018 23:00 0.67 14.4 0.00 66.2
07/14/2018 22:00 0.67 14.4 0.00 67.3
07/14/2018 21:00 0.67 14.4 0.00 68.5
07/14/2018 20:00 0.67 14.4 0.00 69.4
07/14/2018 19:00 0.66 13.9 0.00 70.3
07/14/2018 18:00 0.66 13.9 0.01 68.6
07/14/2018 17:00 0.66 13.9 0.00 70.2
07/14/2018 16:00 0.66 13.9 0.00 71.3
07/14/2018 15:00 0.66 13.9 0.00 69.3
07/14/2018 14:00 0.65 13.5 0.00 68.5
07/14/2018 13:00 0.65 13.5 0.00 66.0
07/14/2018 12:00 0.65 13.5 0.00 63.5
07/14/2018 11:00 0.64 13.1 0.00 62.8
07/14/2018 10:00 0.64 13.1 0.00 62.3
07/14/2018 09:00 0.63 12.7 0.00 61.5
07/14/2018 08:00 0.64 13.1 0.00 61.1
07/14/2018 07:00 0.65 13.5 0.00 60.7
07/14/2018 06:00 0.65 13.5 0.00 60.4
07/14/2018 05:00 0.66 13.9 0.00 59.3
07/14/2018 04:00 0.66 13.9 0.00 58.4
07/14/2018 03:00 0.66 13.9 0.00 57.7
07/14/2018 02:00 0.66 13.9 0.00 59.8
07/14/2018 01:00 0.66 13.9 0.00 61.1
07/14/2018 00:00 0.66 13.9 0.00 62.5
07/13/2018 23:00 0.66 13.9 0.00 65.2
07/13/2018 22:00 0.67 14.4 0.00 68.5
07/13/2018 21:00 0.67 14.4 0.00 72.4
07/13/2018 20:00 0.67 14.4 0.00 74.9
07/13/2018 19:00 0.67 14.4 0.00 83.0
07/13/2018 18:00 0.67 14.4 0.00 83.4
07/13/2018 17:00 0.66 13.9 0.00 81.8
07/13/2018 16:00 0.66 13.9 0.00 79.6
07/13/2018 15:00 0.66 13.9 0.00 80.6
07/13/2018 14:00 0.66 13.9 0.00 78.5
07/13/2018 13:00 0.67 14.4 0.00 75.5
07/13/2018 12:00 0.67 14.4 0.00 71.5
07/13/2018 11:00 0.67 14.4 0.00 67.1
07/13/2018 10:00 0.67 14.4 0.00 61.2
07/13/2018 09:00 0.66 13.9 0.00 56.0
07/13/2018 08:00 0.67 14.4 0.00 52.2
07/13/2018 07:00 0.67 14.4 0.00 50.8
07/13/2018 06:00 0.68 14.8 0.00 51.6
07/13/2018 05:00 0.68 14.8 0.00 53.1
07/13/2018 04:00 0.69 15.2 0.00 54.7
07/13/2018 03:00 0.69 15.2 0.00 56.0
07/13/2018 02:00 0.69 15.2 0.00 57.9
07/13/2018 01:00 0.69 15.2 0.00 59.9
07/13/2018 00:00 0.70 15.7 0.00 62.0
07/12/2018 23:00 0.70 15.7 0.00 63.3
07/12/2018 22:00 0.70 15.7 0.00 65.3
07/12/2018 21:00 0.71 16.2 0.00 68.1
07/12/2018 20:00 0.71 16.2 0.00 69.8
07/12/2018 19:00 0.71 16.2 0.00 74.5
07/12/2018 18:00 0.71 16.2 0.00 78.5
07/12/2018 17:00 0.71 16.2 0.00 76.9
07/12/2018 16:00 0.71 16.2 0.00 75.2
07/12/2018 15:00 0.71 16.2 0.00 77.8
07/12/2018 14:00 0.71 16.2 0.00 74.9
07/12/2018 13:00 0.71 16.2 0.00 73.0
07/12/2018 12:00 0.71 16.2 0.00 68.9
07/12/2018 11:00 0.71 16.2 0.00 64.7
07/12/2018 10:00 0.71 16.2 0.00 59.2
07/12/2018 09:00 0.72 16.6 0.00 52.5
07/12/2018 08:00 0.73 17.1 0.00 48.0
07/12/2018 07:00 0.73 17.1 0.00 45.9
07/12/2018 06:00 0.74 17.6 0.00 46.7
07/12/2018 05:00 0.74 17.6 0.00 48.3
07/12/2018 04:00 0.74 17.6 0.00 49.7
07/12/2018 03:00 0.74 17.6 0.00 51.7
07/12/2018 02:00 0.75 18.1 0.00 53.9
07/12/2018 01:00 0.75 18.1 0.00 55.2
07/12/2018 00:00 0.75 18.1 0.00 57.4
07/11/2018 23:00 0.76 18.5 0.00 59.5
07/11/2018 22:00 0.76 18.5 0.00 63.0
07/11/2018 21:00 0.77 19.1 0.00 68.3
07/11/2018 20:00 0.77 19.1 0.00 72.6
07/11/2018 19:00 0.77 19.1 0.00 78.9
07/11/2018 18:00 0.77 19.1 0.00 78.3
07/11/2018 17:00 0.77 19.1 0.00 78.2
07/11/2018 16:00 0.77 19.1 0.00 76.9
07/11/2018 15:00 0.78 19.6 0.00 77.7
07/11/2018 14:00 0.78 19.6 0.00 72.5
07/11/2018 13:00 0.78 19.6 0.00 71.4
07/11/2018 12:00 0.78 19.6 0.00 68.1
07/11/2018 11:00 0.78 19.6 0.00 63.8
07/11/2018 10:00 0.78 19.6 0.00 62.1
07/11/2018 09:00 0.78 19.6 0.00 63.1
07/11/2018 08:00 0.78 19.6 0.00 61.3
07/11/2018 07:00 0.78 19.6 0.00 60.6
07/11/2018 06:00 0.79 20.1 0.00 60.6
07/11/2018 05:00 0.79 20.1 0.00 61.7
07/11/2018 04:00 0.80 20.6 0.00 62.0
07/11/2018 03:00 0.80 20.6 0.00 62.7
07/11/2018 02:00 0.80 20.6 0.00 63.2
07/11/2018 01:00 0.81 21.1 0.00 64.1
07/11/2018 00:00 0.81 21.1 0.00 64.9
07/10/2018 23:00 0.81 21.1 0.00 65.8
07/10/2018 22:00 0.82 21.7 0.00 67.5
07/10/2018 21:00 0.82 21.7 0.00 68.3
07/10/2018 20:00 0.82 21.7 0.00 69.1
07/10/2018 19:00 0.82 21.7 0.01 68.9
07/10/2018 18:00 0.83 22.3 0.00 71.2
07/10/2018 17:00 0.83 22.3 0.04 77.0
07/10/2018 16:00 0.82 21.7 0.00 82.0
07/10/2018 15:00 0.83 22.3 0.00 85.0
07/10/2018 14:00 0.83 22.3 0.00 80.2
07/10/2018 13:00 0.83 22.3 0.00 78.4
07/10/2018 12:00 0.84 22.8 0.00 76.1
07/10/2018 11:00 0.84 22.8 0.00 69.8
07/10/2018 10:00 0.85 23.4 0.00 63.4
07/10/2018 09:00 0.85 23.4 0.00 59.9
07/10/2018 08:00 0.85 23.4 0.00 55.5
07/10/2018 07:00 0.85 23.4 0.00 53.7
07/10/2018 06:00 0.86 24.0 0.00 54.1
07/10/2018 05:00 0.86 24.0 0.00 55.5
07/10/2018 04:00 0.86 24.0 0.00 56.2
07/10/2018 03:00 0.86 24.0 0.00 57.6
07/10/2018 02:00 0.86 24.0 0.00 59.0
07/10/2018 01:00 0.87 24.6 0.00 60.6
07/10/2018 00:00 0.87 24.6 0.00 62.9
07/09/2018 23:00 0.88 25.2 0.00 65.3
07/09/2018 22:00 0.88 25.2 0.00 68.8
07/09/2018 21:00 0.89 25.8 0.00 73.2
07/09/2018 20:00 0.89 25.8 0.00 78.4
07/09/2018 19:00 0.89 25.8 0.00 86.7
07/09/2018 18:00 0.90 26.4 0.00 89.3
07/09/2018 17:00 0.90 26.4 0.00 88.6
07/09/2018 16:00 0.91 27.0 0.00 87.0
07/09/2018 15:00 0.91 27.0 0.00 85.6
07/09/2018 14:00 0.92 27.7 0.00 82.3
07/09/2018 13:00 0.92 27.7 0.00 78.7
07/09/2018 12:00 0.92 27.7 0.00 73.9
07/09/2018 11:00 0.93 28.3 0.00 68.8
07/09/2018 10:00 0.94 28.9 0.00 62.3
07/09/2018 09:00 0.94 28.9 0.00 56.6
07/09/2018 08:00 0.95 29.6 0.00 52.2
07/09/2018 07:00 0.96 30.3 0.00 50.9
07/09/2018 06:00 0.96 30.3 0.00 52.0
07/09/2018 05:00 0.97 30.9 0.00 53.1
07/09/2018 04:00 0.97 30.9 0.00 54.4
07/09/2018 03:00 0.97 30.9 0.00 55.6
07/09/2018 02:00 0.98 31.6 0.00 57.1
07/09/2018 01:00 0.98 31.6 0.00 58.8
07/09/2018 00:00 0.99 32.3 0.00 60.8
07/08/2018 23:00 1.00 33.0 0.00 63.4
07/08/2018 22:00 1.01 33.7 0.00 67.4
07/08/2018 21:00 1.01 33.7 0.00 71.0
07/08/2018 20:00 1.02 34.4 0.00 75.7
07/08/2018 19:00 1.02 34.4 0.00 83.8
07/08/2018 18:00 1.02 34.4 0.00 85.0
07/08/2018 17:00 1.03 35.1 0.00 82.3
07/08/2018 16:00 -- -- -- --
07/08/2018 15:00 -- -- -- --
07/08/2018 14:00 -- -- -- --
07/08/2018 13:00 -- -- -- --
07/08/2018 12:00 -- -- -- --
07/08/2018 11:00 -- -- -- --
07/08/2018 10:00 -- -- -- --